Miscellaneous Local Product
Issued by NWS Hastings, NE

Home | Current Version | Previous Version | Text Only | Print | Product List | Glossary Off
Versions: 1 2 3 4 5 6 7 8 9 10 11 12 13 14 15 16 17 18 19 20 21 22 23 24 25 26 27 28 29 30 31 32 33 34 35 36 37 38 39 40 41 42 43 44 45 46 47 48 49 50

000
AXUS43 KGID 011202
MISGRI

GID CWA HOURLY WEATHER ROUNDUP
NATIONAL WEATHER SERVICE HASTINGS NE
700 AM CDT SUN MAY 01 2016

NOTE: "FAIR" INDICATES FEW OR NO CLOUDS BELOW 12,000 FEET WITH NO
SIGNIFICANT WEATHER AND/OR OBSTRUCTIONS TO VISIBILITY.

...SOUTH CENTRAL NEBRASKA...

CITY           SKY/WX    TMP DP  RH WIND       PRES   REMARKS
GRAND ISLAND   LGT RAIN  40  38  93 N18G26    30.04R WCI  31
HASTINGS       LGT RAIN  41  39  93 N18       30.02R
KEARNEY        CLOUDY    39  37  93 N16       30.06R WCI  30
ORD            LGT RAIN  41  39  93 N16       30.08R
YORK           MIX PCPN  41  41 100 N18G25    29.99R
AURORA         LGT RAIN  42  41  99 N18       30.01R
LEXINGTON      RAIN      39  36  89 N13       30.08R WCI  32
HOLDREGE       CLOUDY    39  37  91 N18G26    30.04R WCI  30
HEBRON         CLOUDY    46  45  97 N13G18    29.94R FOG

...NEBRASKA PANHANDLE...

CITY           SKY/WX    TMP DP  RH WIND       PRES   REMARKS
CHADRON        CLOUDY    35  29  78 N6        30.27R WCI  30
ALLIANCE       CLOUDY    35  32  88 N14       30.21S WCI  26
SCOTTSBLUFF    CLOUDY    37  33  85 NW7       30.26R WCI  32
SIDNEY         CLOUDY    34  32  92 N15       30.22R WCI  24

...WESTERN AND NORTH CENTRAL NEBRASKA...

CITY           SKY/WX    TMP DP  RH WIND       PRES   REMARKS
VALENTINE      CLEAR     36  33  89 N13       30.19R WCI  27
AINSWORTH      CLOUDY    38  37  94 N14G20    30.16R WCI  30
ONEILL         DRIZZLE   42  40  94 N10       30.12R
BROKEN BOW     LGT RAIN  40  38  93 N24G31    30.09R WCI  29
IMPERIAL       CLOUDY    36  34  92 N20       30.16R WCI  25
NORTH PLATTE   CLOUDY    37  35  92 N14       30.14R WCI  28
MCCOOK         CLOUDY    37  34  89 N20       30.10R WCI  27

...EASTERN NEBRASKA...

CITY           SKY/WX    TMP DP  RH WIND       PRES   REMARKS
NORFOLK        LGT RAIN  41  39  93 NE12      30.05R FOG
SO SIOUX CITY  LGT RAIN  44  40  85 NE13      30.05R
TEKAMAH        CLOUDY    43  42  97 N14       30.01R
COLUMBUS       CLOUDY    43  34  70 N14       30.03R
ALBION         LGT RAIN  41  39  94 NE13G21   30.06R
OMAHA EPPLEY   LGT RAIN  45  43  93 NE8       29.98R
OFFUTT AFB     CLOUDY    45  44  96 N9        29.96R
MILLARD        CLOUDY    45  43  95 NE5       29.96R FOG
LINCOLN        LGT RAIN  45  43  93 N10       29.98R
NEBRASKA CITY  CLOUDY    47  47 100 NE9       29.93R FOG
BEATRICE       CLOUDY    46  45  96 W3        29.93R
FALLS CITY     CLOUDY    50  48  93 W7        29.91R

...NORTHERN KANSAS...

CITY           SKY/WX    TMP DP  RH WIND       PRES   REMARKS
GOODLAND       CLOUDY    35  33  92 N18G24    30.14R WCI  24
HILL CITY      CLOUDY    40  37  89 NW13      30.08R WCI  32
NORTON         DRIZZLE   37  34  87 NW15      30.06R WCI  28
PHILLIPSBURG   CLOUDY    43  39  87 NW15G23   30.05R
SMITH CENTER   CLOUDY    41  39  93 N17       30.02R FOG
BELOIT         CLOUDY    45  43  93 NW14G20   29.97R
HAYS           CLOUDY    43  34  70 NW16G25   30.03R
RUSSELL        CLOUDY    44  43  96 NW16      29.99R FOG
CONCORDIA      LGT RAIN  45  44  97 NW9       29.95R FOG
SALINA         CLOUDY    44  40  85 W9        29.98R
TOPEKA         CLOUDY    49  44  83 W6        29.93R



USA.gov is the U.S. government's official web portal to all federal, state and local government web resources and services.